FW7308 Weather Reports


time (UTC)temp
C
wind
direction
speed
KPH
gust
KPH
rain 1hr
cm
rain 24hr
cm
rain mn
cm
humidity
%
barometer
mb
20260509102618 3 65 4.8 4.8 0.00 0.00 0.00 86 1015.1
20260509101617 3 19 3.2 3.2 0.00 0.00 0.00 86 1015.1
20260509101119 3 340 1.6 3.2 0.00 0.00 0.00 85 1015.1
20260509100617 3 351 1.6 1.6 0.00 0.00 0.00 84 1015.1
20260509100117 3 0.0 0.0 0.00 0.00 0.00 84 1015.1
20260509095616 4 353 1.6 3.2 0.00 0.00 0.00 83 1015.1
20260509095117 4 346 1.6 3.2 0.00 0.00 0.00 83 1015.2
20260509094617 3 273 3.2 4.8 0.00 0.00 0.00 83 1015.1
20260509094117 3 309 1.6 4.8 0.00 0.00 0.00 84 1015.1
20260509093647 3 74 4.8 4.8 0.00 0.00 0.00 85 1015.1
20260509093146 3 0 3.2 3.2 0.00 0.00 0.00 87 1015.1
20260509092645 2 350 1.6 1.6 0.00 0.00 0.00 88 1015.1
20260509092144 2 0.0 0.0 0.00 0.00 0.00 91 1015.1
20260509091643 1 334 1.6 1.6 0.00 0.00 0.00 93 1015.1
20260509091145 1 0.0 0.0 0.00 0.00 0.00 93 1015.1
20260509090647 1 0.0 0.0 0.00 0.00 0.00 93 1015.1
20260509090143 1 326 1.6 1.6 0.00 0.00 0.00 92 1014.9
20260509085645 1 326 1.6 1.6 0.00 0.00 0.00 92 1015.1
20260509085143 2 356 1.6 3.2 0.00 0.00 0.00 91 1014.7
20260509084646 1 0.0 0.0 0.00 0.00 0.00 93 1014.7
20260509084242 1 340 1.6 1.6 0.00 0.00 0.00 93 1014.9
20260509083644 1 336 0.0 1.6 0.00 0.00 0.00 94 1014.7
20260509083140 1 331 0.0 1.6 0.00 0.00 0.00 93 1014.4
20260509082643 -17 0.0 0.0 0.00 0.00 0.00 1014.4
20260509082140 -17 0.0 0.0 0.00 0.00 0.00 1014.4
20260509081639 1 326 1.6 1.6 0.00 0.00 0.00 92 1014.4
20260509081140 1 326 1.6 1.6 0.00 0.00 0.00 92 1014.4
20260509080639 1 342 3.2 3.2 0.00 0.00 0.00 91 1014.4
20260509080141 1 342 3.2 3.2 0.00 0.00 0.00 91 1014.4
20260509075638 1 323 3.2 3.2 0.00 0.00 0.00 91 1014.2
20260509074638 -17 0.0 0.0 0.00 0.00 0.00 1014.4
20260509074238 1 326 3.2 3.2 0.00 0.00 0.00 92 1014.4
20260509073638 1 326 3.2 3.2 0.00 0.00 0.00 92 1014.4
20260509073138 1 330 3.2 3.2 0.00 0.00 0.00 91 1014.4
20260509072637 1 330 3.2 3.2 0.00 0.00 0.00 91 1014.4
20260509071637 1 327 1.6 1.6 0.00 0.00 0.00 92 1014.4
20260509070635 1 325 3.2 3.2 0.00 0.00 0.00 92 1014.2
20260509070135 1 325 3.2 3.2 0.00 0.00 0.00 91 1014.4
20260509065635 1 333 1.6 1.6 0.00 0.00 0.00 90 1014.4
20260509065137 1 0.0 0.0 0.00 0.00 0.00 90 1014.4
20260509064635 1 334 3.2 3.2 0.00 0.00 0.00 91 1014.4
20260509064135 1 326 4.8 4.8 0.00 0.00 0.00 90 1014.4
20260509063634 1 326 4.8 4.8 0.00 0.00 0.00 90 1014.5
20260509063135 1 327 4.8 4.8 0.00 0.00 0.00 90 1014.5
20260509062633 1 330 4.8 4.8 0.00 0.00 0.00 90 1014.7
20260509061632 1 326 3.2 3.2 0.00 0.00 0.00 90 1014.7
20260509061133 1 333 3.2 3.2 0.00 0.00 0.00 90 1014.7
20260509060632 1 325 3.2 3.2 0.00 0.00 0.00 90 1014.7
20260509060131 1 326 3.2 3.2 0.00 0.00 0.00 90 1014.9
20260509055630 1 320 3.2 3.2 0.00 0.00 0.00 90 1014.9
20260509055130 2 325 3.2 3.2 0.00 0.00 0.00 89 1015.1
20260509054631 2 0.0 0.0 0.00 0.00 0.00 88 1015.1
20260509054131 2 0.0 0.0 0.00 0.00 0.00 88 1015.1
20260509053128 2 324 3.2 3.2 0.00 0.00 0.00 88 1015.1
20260509052628 2 333 3.2 3.2 0.00 0.00 0.00 88 1015.1
20260509052130 2 331 3.2 3.2 0.00 0.00 0.00 87 1014.9
20260509051628 2 335 3.2 3.2 0.00 0.00 0.00 88 1015.1
20260509051127 2 325 3.2 3.2 0.00 0.00 0.00 89 1014.7
20260509050628 2 325 3.2 3.2 0.00 0.00 0.00 88 1014.7
20260509050128 2 325 3.2 3.2 0.00 0.00 0.00 88 1014.7
20260509045627 2 326 3.2 3.2 0.00 0.00 0.00 88 1014.7
20260509045126 2 326 3.2 3.2 0.00 0.00 0.00 88 1014.7
20260509044625 2 325 3.2 3.2 0.00 0.00 0.00 87 1014.7
20260509044124 2 332 3.2 4.8 0.00 0.00 0.00 87 1014.7
20260509043627 2 331 1.6 1.6 0.00 0.00 0.00 87 1014.7
20260509043125 2 329 3.2 3.2 0.00 0.00 0.00 87 1014.7
20260509042125 3 330 1.6 3.2 0.00 0.00 0.00 86 1014.7
20260509041625 3 328 3.2 3.2 0.00 0.00 0.00 85 1014.4
20260509041225 3 335 3.2 3.2 0.00 0.00 0.00 84 1014.7
20260509040623 3 327 1.6 3.2 0.00 0.00 0.00 85 1014.7
20260509040124 3 331 1.6 1.6 0.00 0.00 0.00 85 1014.5
20260509035623 3 331 1.6 1.6 0.00 0.00 0.00 84 1014.7
20260509035124 3 330 1.6 1.6 0.00 0.00 0.00 83 1014.7
20260509034121 3 326 1.6 1.6 0.00 0.00 0.00 83 1014.7
20260509033623 3 326 1.6 1.6 0.00 0.00 0.00 83 1014.4
20260509033123 3 327 1.6 1.6 0.00 0.00 0.00 83 1014.4
20260509032621 3 328 1.6 1.6 0.00 0.00 0.00 83 1014.5
20260509031621 -17 0.0 0.0 0.00 0.00 0.00 1014.4
20260509031222 -17 0.0 0.0 0.00 0.00 0.00 1014.4
20260509030619 -17 0.0 0.0 0.00 0.00 0.00 1014.4
20260509030118 -17 0.0 0.0 0.00 0.00 0.00 1014.4
20260509024618 -17 0.0 0.0 0.00 0.00 0.00 1014.4
20260509024119 -17 0.0 0.0 0.00 0.00 0.00 1014.2
20260509023618 -17 0.0 0.0 0.00 0.00 0.00 1014.2
20260509023117 -17 0.0 0.0 0.00 0.00 0.00 1014.0
20260509022618 -17 0.0 0.0 0.00 0.00 0.00 1014.0
20260509022116 -17 0.0 0.0 0.00 0.00 0.00 1014.0
20260509021645 5 337 1.6 1.6 0.00 0.00 0.00 79 1014.0
20260509021146 5 337 1.6 1.6 0.00 0.00 0.00 79 1014.0
20260509020645 5 331 1.6 1.6 0.00 0.00 0.00 78 1014.0
20260509020145 5 331 1.6 1.6 0.00 0.00 0.00 78 1013.7
20260509015644 5 308 3.2 8.0 0.00 0.00 0.00 78 1014.0
20260509015145 5 331 1.6 1.6 0.00 0.00 0.00 78 1014.0
20260509014644 5 0.0 0.0 0.00 0.00 0.00 77 1014.0
20260509014143 -17 0.0 0.0 0.00 0.00 0.00 1013.7
20260509013644 6 318 3.2 3.2 0.00 0.00 0.00 70 1014.0
20260509013145 6 318 3.2 3.2 0.00 0.00 0.00 70 1013.7
20260509012142 6 327 1.6 1.6 0.00 0.00 0.00 72 1013.7
20260509011643 6 331 1.6 1.6 0.00 0.00 0.00 72 1013.3
20260509011243 -17 0.0 0.0 0.00 0.00 0.00 1013.3
20260509010642 6 357 4.8 4.8 0.00 0.00 0.00 71 1013.3
20260509010241 6 357 4.8 4.8 0.00 0.00 0.00 71 1013.3
20260509005640 7 330 3.2 4.8 0.00 0.00 0.00 67 1013.3
20260509005143 7 320 1.6 4.8 0.00 0.00 0.00 68 1013.3
20260509004640 7 302 4.8 4.8 0.00 0.00 0.00 68 1013.0
20260509004140 7 302 4.8 4.8 0.00 0.00 0.00 68 1013.0
20260509003639 7 333 1.6 3.2 0.00 0.00 0.00 68 1012.6
20260509003138 7 293 4.8 11.3 0.00 0.00 0.00 68 1012.6
20260509002639 7 340 1.6 3.2 0.00 0.00 0.00 68 1013.0
20260509002139 7 328 3.2 3.2 0.00 0.00 0.00 68 1012.6
20260509001638 7 314 3.2 3.2 0.00 0.00 0.00 69 1012.6
20260509001137 7 338 3.2 4.8 0.00 0.00 0.00 69 1012.6
20260509000738 7 330 0.0 1.6 0.00 0.00 0.00 70 1012.6
20260509000137 7 330 0.0 1.6 0.00 0.00 0.00 68 1012.6
20260508235636 7 316 1.6 3.2 0.00 0.00 0.00 69 1012.6
20260508235135 7 349 1.6 3.2 0.00 0.00 0.00 67 1012.6
20260508234636 7 0.0 0.0 0.00 0.00 0.00 67 1012.6
20260508234136 7 316 3.2 4.8 0.00 0.00 0.00 67 1012.3
20260508233636 7 340 1.6 3.2 0.00 0.00 0.00 66 1012.4
20260508233136 8 0.0 0.0 0.00 0.00 0.00 67 1012.6
20260508232633 8 349 3.2 4.8 0.00 0.00 0.00 66 1012.3
20260508232135 8 302 4.8 8.0 0.00 0.00 0.00 65 1012.3
20260508231634 8 340 0.0 1.6 0.00 0.00 0.00 66 1012.3
20260508230635 8 349 1.6 3.2 0.00 0.00 0.00 66 1012.1
20260508225632 8 302 6.4 11.3 0.00 0.00 0.00 65 1012.3
20260508225136 8 322 6.4 8.0 0.00 0.00 0.00 65 1011.9
20260508224633 8 8 8.0 9.7 0.00 0.00 0.00 64 1011.9
20260508224134 8 326 4.8 8.0 0.00 0.00 0.00 64 1011.9
20260508223631 8 352 3.2 4.8 0.00 0.00 0.00 63 1011.9
20260508223131 8 331 4.8 8.0 0.00 0.00 0.00 64 1011.9
20260508222632 8 299 6.4 12.9 0.00 0.00 0.00 65 1012.1
20260508222131 8 330 8.0 14.5 0.00 0.00 0.00 67 1011.9
20260508221631 8 356 8.0 14.5 0.00 0.00 0.00 68 1012.3
20260508221129 8 356 4.8 12.9 0.00 0.00 0.00 67 1012.1
20260508220130 8 325 3.2 9.7 0.00 0.00 0.00 68 1011.9
20260508215629 8 326 3.2 4.8 0.00 0.00 0.00 67 1012.1
20260508215129 8 330 11.3 14.5 0.00 0.00 0.00 68 1011.9
20260508214627 8 313 6.4 9.7 0.00 0.00 0.00 67 1012.3
20260508213127 7 349 1.6 3.2 0.00 0.00 0.00 77 1011.9
20260508212626 7 312 1.6 3.2 0.00 0.00 0.00 79 1012.3
20260508212125 7 313 1.6 4.8 0.00 0.00 0.00 76 1012.3
20260508211626 7 297 6.4 8.0 0.00 0.00 0.00 72 1012.3
20260508210124 8 306 8.0 14.5 0.00 0.00 0.00 63 1011.9
20260508205627 8 356 14.5 20.9 0.00 0.00 0.00 60 1011.6
20260508205124 9 296 4.8 8.0 0.00 0.00 0.00 56 1011.6
20260508204625 10 342 11.3 16.1 0.00 0.00 0.00 52 1011.6
20260508203623 11 332 4.8 8.0 0.00 0.00 0.00 49 1011.2
20260508202622 11 341 3.2 4.8 0.00 0.00 0.00 49 1011.2
20260508193622 12 325 6.4 9.7 0.00 0.00 0.00 45 1010.9
20260508193119 11 338 1.6 3.2 0.00 0.00 0.00 48 1010.5
20260508192620 11 306 4.8 9.7 0.00 0.00 0.00 48 1010.7
20260508192117 11 337 4.8 8.0 0.00 0.00 0.00 49 1010.9
20260508191617 11 316 4.8 9.7 0.00 0.00 0.00 47 1010.9
20260508191119 11 0 4.8 9.7 0.00 0.00 0.00 47 1010.9
20260508190617 11 338 3.2 3.2 0.00 0.00 0.00 45 1010.9
20260508185718 11 334 6.4 11.3 0.00 0.00 0.00 46 1010.9
20260508185117 11 329 3.2 3.2 0.00 0.00 0.00 46 1010.9
20260508184646 11 317 9.7 12.9 0.00 0.00 0.00 43 1010.9
20260508184245 11 284 8.0 12.9 0.00 0.00 0.00 44 1010.9
20260508183646 11 9 17.7 24.1 0.00 0.00 0.00 43 1010.7
20260508183145 11 342 8.0 12.9 0.00 0.00 0.00 43 1010.9
20260508182644 12 7 9.7 16.1 0.00 0.00 0.00 43 1010.9
20260508181643 13 55 3.2 9.7 0.00 0.00 0.00 43 1010.9
20260508180644 11 321 3.2 8.0 0.00 0.00 0.00 43 1010.9
20260508180243 11 338 1.6 3.2 0.00 0.00 0.00 44 1010.9
20260508174642 12 315 6.4 8.0 0.00 0.00 0.00 42 1010.9
20260508174141 12 321 8.0 12.9 0.00 0.00 0.00 42 1010.9
20260508173643 11 296 8.0 12.9 0.00 0.00 0.00 42 1010.9
20260508173140 12 65 4.8 8.0 0.00 0.00 0.00 42 1011.0
20260508172641 11 338 8.0 12.9 0.00 0.00 0.00 44 1011.2
20260508172140 11 349 8.0 14.5 0.00 0.00 0.00 44 1010.9
20260508171641 11 356 6.4 9.7 0.00 0.00 0.00 42 1011.4
20260508171141 11 335 11.3 12.9 0.00 0.00 0.00 43 1011.2
20260508170639 10 314 4.8 8.0 0.00 0.00 0.00 45 1011.2
20260508163637 10 313 3.2 4.8 0.00 0.00 0.00 45 1011.6
20260508163136 10 295 4.8 9.7 0.00 0.00 0.00 45 1011.6
20260508162737 10 323 4.8 9.7 0.00 0.00 0.00 47 1011.4
20260508162136 10 332 6.4 11.3 0.00 0.00 0.00 45 1011.2
20260508161135 10 1 4.8 8.0 0.00 0.00 0.00 45 1011.2
20260508160135 10 1 1.6 1.6 0.00 0.00 0.00 43 1011.2
20260508155634 10 337 4.8 8.0 0.00 0.00 0.00 44 1011.2
20260508155133 10 3 11.3 16.1 0.00 0.00 0.00 43 1011.2
20260508154632 10 7 12.9 27.4 0.00 0.00 0.00 42 1011.2
20260508154134 10 344 1.6 3.2 0.00 0.00 0.00 43 1011.2
20260508153633 11 321 6.4 11.3 0.00 0.00 0.00 42 1011.2
20260508153234 11 133 4.8 11.3 0.00 0.00 0.00 41 1011.2
20260508152632 11 336 1.6 3.2 0.00 0.00 0.00 43 1010.9
20260508152133 11 313 4.8 8.0 0.00 0.00 0.00 43 1010.9
20260508151633 11 10 8.0 12.9 0.00 0.00 0.00 42 1010.9
20260508151131 10 328 6.4 11.3 0.00 0.00 0.00 42 1010.9
20260508150630 10 356 8.0 14.5 0.00 0.00 0.00 43 1010.9
20260508140126 9 269 8.0 12.9 0.00 0.00 0.00 50 1011.2
20260508135627 8 1 11.3 16.1 0.00 0.00 0.00 52 1011.2
20260508135126 8 340 9.7 14.5 0.00 0.00 0.00 51 1011.4
20260508134625 10 355 14.5 22.5 0.00 0.00 0.00 50 1011.6
20260508133626 8 335 0.0 1.6 0.00 0.00 0.00 53 1011.6
20260508133126 8 327 3.2 4.8 0.00 0.00 0.00 54 1011.6
20260508132624 8 358 4.8 12.9 0.00 0.00 0.00 54 1011.6
20260508132123 7 14 4.8 8.0 0.00 0.00 0.00 55 1011.6
20260508131622 8 358 4.8 8.0 0.00 0.00 0.00 56 1011.6
20260508131124 7 343 3.2 4.8 0.00 0.00 0.00 58 1011.6
20260508130623 7 318 4.8 8.0 0.00 0.00 0.00 58 1011.7
20260508130122 7 316 6.4 11.3 0.00 0.00 0.00 59 1011.6
20260508125621 7 314 3.2 4.8 0.00 0.00 0.00 59 1011.6
20260508125120 7 312 6.4 12.9 0.00 0.00 0.00 60 1011.6
20260508124622 6 326 1.6 3.2 0.00 0.00 0.00 59 1011.6
20260508124121 6 353 3.2 8.0 0.00 0.00 0.00 59 1011.6
20260508123621 6 318 8.0 11.3 0.00 0.00 0.00 60 1011.6
20260508123121 6 340 3.2 3.2 0.00 0.00 0.00 60 1011.6
20260508122620 6 313 4.8 11.3 0.00 0.00 0.00 61 1011.6
20260508122122 6 328 6.4 12.9 0.00 0.00 0.00 60 1011.6
20260508121718 6 323 4.8 8.0 0.00 0.00 0.00 61 1011.4
20260508121122 6 315 4.8 8.0 0.00 0.00 0.00 60 1011.6
20260508120620 6 330 1.6 1.6 0.00 0.00 0.00 61 1011.6
20260508120118 7 321 8.0 11.3 0.00 0.00 0.00 59 1011.6
20260508115617 7 321 4.8 4.8 0.00 0.00 0.00 60 1011.6
20260508115118 7 14 4.8 12.9 0.00 0.00 0.00 62 1011.6
20260508114617 6 330 3.2 4.8 0.00 0.00 0.00 62 1011.6
20260508114117 6 341 1.6 3.2 0.00 0.00 0.00 61 1011.2
20260508113621 6 322 6.4 9.7 0.00 0.00 0.00 61 1011.2
20260508113217 7 12 8.0 14.5 0.00 0.00 0.00 60 1011.2
20260508112656 7 302 3.2 3.2 0.00 0.00 0.00 63 1011.2